Ortonville, MN

1:03 PM CST on February 08, 2016 (GMT -0600)
Ortonville Municipal-Martinson

Weather History for KVVV - May, 2013

Change the Weather History Date:

Wednesday, May 22, 2013

  Actual Average (KAQP) Record (KAQP)
Temperature  
Mean Temperature 50 °F -  
Max Temperature 55 °F 67 °F 84 °F (2012)
Min Temperature 46 °F 45 °F 35 °F (2006)
Degree Days  
Heating Degree Days 14    
Moisture  
Dew Point 46 °F    
Average Humidity 87    
Maximum Humidity 93    
Minimum Humidity 72    
Precipitation  
Precipitation 0.20 in - - ()
Sea Level Pressure  
Sea Level Pressure 29.88 in    
Wind  
Wind Speed 13 mph (NNE)    
Max Wind Speed 22 mph    
Max Gust Speed 31 mph    
Visibility 8 miles    
Events Rain    
Averages and records for this station are not official NWS values.
T = Trace of Precipitation, MM = Missing Value Source: NWS Daily Summary

Daily Weather History Graph

Daily Weather History Graph

Search for Another Location

Airport or City:

Trip Planner

Search our weather history database for the weather conditions in past years. The results will help you decide how hot, cold, wet, or windy it might be!

Date:

Astronomy

May. 22, 2013 Rise Set
Actual Time 5:48 AM CDT 8:57 PM CDT
Civil Twilight 5:12 AM CDT 9:32 PM CDT
Nautical Twilight 4:27 AM CDT 10:18 PM CDT
Astronomical Twilight 3:31 AM CDT 11:15 PM CDT
Moon 6:14 PM CDT (5/22) 4:01 AM CDT (5/22)
Length of Visible Light 16h 19m
Length of Day
15h 08m
Waxing Gibbous, 91% of the Moon is Illuminated
May 22
Waxing Gibbous
May 24
Full
May 31
Last Quarter
Jun 8
New
Jun 16
First Quarter

Hourly Weather History & Observations

Time (CDT) Temp. Windchill Dew Point Humidity Pressure Visibility Wind Dir Wind Speed Gust Speed Precip Events Conditions
12:14 AM 48.2 °F - 46.4 °F 93% 29.78 in 4.0 mi North 11.5 mph - N/A Rain Light Rain
12:33 AM 48.2 °F - 46.4 °F 93% 29.78 in 5.0 mi North 13.8 mph - N/A   Light Drizzle
12:54 AM 48.2 °F - 46.4 °F 93% 29.77 in 5.0 mi North 13.8 mph 17.3 mph N/A Rain Light Rain
1:13 AM 48.2 °F - 46.4 °F 93% 29.77 in 5.0 mi NNE 12.7 mph - N/A   Light Drizzle
1:34 AM 48.2 °F - 46.4 °F 93% 29.77 in 5.0 mi NNE 11.5 mph - N/A   Light Drizzle
1:54 AM 48.2 °F - 46.4 °F 93% 29.77 in 10.0 mi NNE 15.0 mph 19.6 mph 0.01 in   Light Drizzle
2:13 AM 48.2 °F - 46.4 °F 93% 29.77 in 4.0 mi NNE 15.0 mph - N/A Rain Light Rain
2:34 AM 48.2 °F - 46.4 °F 93% 29.77 in 4.0 mi NNE 12.7 mph - N/A Rain Light Rain
2:54 AM 48.2 °F - 44.6 °F 87% 29.77 in 5.0 mi NNE 16.1 mph - N/A   Light Drizzle
3:13 AM 46.4 °F 40.1 °F 44.6 °F 93% 29.77 in 5.0 mi NNE 15.0 mph - N/A Rain Light Rain
3:34 AM 48.2 °F - 44.6 °F 87% 29.77 in 7.0 mi NNE 16.1 mph - N/A   Drizzle
3:54 AM 46.4 °F 40.4 °F 44.6 °F 93% 29.77 in 5.0 mi NNE 13.8 mph 18.4 mph N/A Rain Light Rain
4:14 AM 46.4 °F 40.7 °F 44.6 °F 93% 29.78 in 10.0 mi NNE 12.7 mph - N/A Rain Light Rain
4:34 AM 46.4 °F 40.7 °F 44.6 °F 93% 29.78 in 5.0 mi NNE 12.7 mph 17.3 mph N/A Rain Rain
4:53 AM 46.4 °F 41.1 °F 44.6 °F 93% 29.79 in 10.0 mi NNE 11.5 mph - N/A Rain Light Rain
5:14 AM 46.4 °F 41.1 °F 44.6 °F 93% 29.79 in 10.0 mi NNE 11.5 mph - 0.01 in Rain Light Rain
5:34 AM 46.4 °F 40.4 °F 44.6 °F 93% 29.79 in 7.0 mi NNE 13.8 mph - 0.02 in Rain Light Rain
5:53 AM 46.4 °F 41.1 °F 44.6 °F 93% 29.79 in 10.0 mi North 11.5 mph - 0.03 in Rain Light Rain
6:14 AM 46.4 °F 39.5 °F 44.6 °F 93% 29.80 in 10.0 mi North 17.3 mph - 0.01 in Rain Light Rain
6:34 AM 46.4 °F 40.7 °F 44.6 °F 93% 29.80 in 10.0 mi North 12.7 mph - 0.03 in Rain Rain
6:53 AM 46.4 °F 40.1 °F 44.6 °F 93% 29.80 in 10.0 mi North 15.0 mph 18.4 mph 0.04 in Rain Light Rain
7:14 AM 46.4 °F 40.1 °F 44.6 °F 93% 29.80 in 10.0 mi North 15.0 mph - 0.01 in Rain Light Rain
7:33 AM 46.4 °F 40.4 °F 44.6 °F 93% 29.80 in 10.0 mi North 13.8 mph - 0.02 in Rain Light Rain
7:54 AM 46.4 °F 40.4 °F 44.6 °F 93% 29.80 in 10.0 mi North 13.8 mph - 0.02 in Rain Light Rain
8:14 AM 46.4 °F 39.5 °F 44.6 °F 93% 29.80 in 10.0 mi North 17.3 mph - 0.01 in Rain Light Rain
8:33 AM 46.4 °F 39.8 °F 44.6 °F 93% 29.81 in 10.0 mi North 16.1 mph - 0.01 in Rain Light Rain
8:54 AM 48.2 °F - 44.6 °F 87% 29.82 in 10.0 mi North 15.0 mph - 0.01 in Rain Light Rain
9:13 AM 48.2 °F - 44.6 °F 87% 29.82 in 10.0 mi North 13.8 mph 21.9 mph N/A Rain Light Rain
9:34 AM 48.2 °F - 44.6 °F 87% 29.82 in 10.0 mi North 16.1 mph - 0.01 in Rain Light Rain
9:54 AM 48.2 °F - 44.6 °F 87% 29.82 in 10.0 mi NNE 13.8 mph - 0.01 in Rain Light Rain
10:13 AM 48.2 °F - 44.6 °F 87% 29.83 in 4.0 mi NNE 17.3 mph 21.9 mph N/A   Light Drizzle
10:34 AM 48.2 °F - 46.4 °F 93% 29.83 in 4.0 mi NNE 15.0 mph 19.6 mph N/A Rain Light Rain
10:53 AM 48.2 °F - 46.4 °F 93% 29.83 in 5.0 mi NNE 16.1 mph - 0.01 in Rain Light Rain
11:14 AM 48.2 °F - 46.4 °F 93% 29.83 in 4.0 mi North 16.1 mph - N/A Rain Rain
11:34 AM 48.2 °F - 46.4 °F 93% 29.84 in 7.0 mi North 16.1 mph - N/A Rain Light Rain
11:53 AM 48.2 °F - 46.4 °F 93% 29.85 in 4.0 mi NNE 17.3 mph - 0.01 in Rain Light Rain
12:14 PM 48.2 °F - 46.4 °F 93% 29.86 in 4.0 mi NNE 16.1 mph - 0.01 in Rain Light Rain
12:33 PM 50.0 °F - 46.4 °F 87% 29.86 in 4.0 mi North 17.3 mph 20.7 mph 0.01 in Rain Light Rain
12:54 PM 50.0 °F - 46.4 °F 87% 29.86 in 7.0 mi NNE 18.4 mph - 0.02 in Rain Light Rain
1:14 PM 50.0 °F - 46.4 °F 87% 29.87 in 3.0 mi NNE 15.0 mph - N/A Rain Light Rain
1:33 PM 50.0 °F - 46.4 °F 87% 29.88 in 7.0 mi NNE 17.3 mph 21.9 mph 0.01 in Rain Light Rain
1:54 PM 51.8 °F - 48.2 °F 88% 29.88 in 10.0 mi NNE 13.8 mph - 0.01 in Rain Rain
2:14 PM 51.8 °F - 46.4 °F 82% 29.89 in 10.0 mi NNE 17.3 mph 24.2 mph 0.01 in Rain Light Rain
2:33 PM 51.8 °F - 48.2 °F 88% 29.89 in 10.0 mi NE 12.7 mph - 0.01 in Rain Light Rain
2:54 PM 51.8 °F - 48.2 °F 88% 29.89 in 10.0 mi NE 19.6 mph 26.5 mph 0.01 in Rain Light Rain
3:13 PM 53.6 °F - 48.2 °F 82% 29.90 in 10.0 mi NE 21.9 mph 28.8 mph 0.01 in Rain Light Rain
3:34 PM 53.6 °F - 48.2 °F 82% 29.90 in 10.0 mi NE 19.6 mph 25.3 mph 0.01 in Rain Light Rain
3:53 PM 53.6 °F - 48.2 °F 82% 29.91 in 10.0 mi NE 18.4 mph 24.2 mph 0.01 in Rain Light Rain
4:14 PM 53.6 °F - 48.2 °F 82% 29.91 in 10.0 mi NE 16.1 mph 25.3 mph N/A   Light Drizzle
4:34 PM 53.6 °F - 48.2 °F 82% 29.92 in 10.0 mi NE 21.9 mph 27.6 mph N/A Rain Light Rain
4:53 PM 53.6 °F - 48.2 °F 82% 29.93 in 10.0 mi NE 18.4 mph 26.5 mph 0.01 in   Light Drizzle
5:14 PM 53.6 °F - 48.2 °F 82% 29.94 in 10.0 mi NE 17.3 mph 25.3 mph N/A   Overcast
5:33 PM 53.6 °F - 48.2 °F 82% 29.95 in 10.0 mi NE 20.7 mph 31.1 mph N/A   Overcast
5:54 PM 55.4 °F - 46.4 °F 72% 29.96 in 10.0 mi NE 13.8 mph 24.2 mph N/A   Overcast
6:14 PM 55.4 °F - 46.4 °F 72% 29.96 in 10.0 mi ENE 13.8 mph 20.7 mph N/A   Overcast
6:34 PM 55.4 °F - 46.4 °F 72% 29.96 in 10.0 mi ENE 11.5 mph 18.4 mph N/A   Overcast
6:53 PM 55.4 °F - 46.4 °F 72% 29.97 in 10.0 mi ENE 9.2 mph - N/A   Overcast
7:14 PM 55.4 °F - 48.2 °F 77% 29.97 in 10.0 mi ENE 10.4 mph 19.6 mph N/A   Overcast
7:33 PM 55.4 °F - 46.4 °F 72% - 10.0 mi ENE 6.9 mph - N/A   Overcast
7:54 PM 55.4 °F - 46.4 °F 72% 29.99 in 10.0 mi East 5.8 mph - N/A   Overcast
8:13 PM 55.4 °F - 46.4 °F 72% 29.99 in 10.0 mi East 6.9 mph - N/A   Overcast
8:34 PM 55.4 °F - 46.4 °F 72% 29.99 in 10.0 mi East 5.8 mph - N/A   Mostly Cloudy
8:54 PM 53.6 °F - 46.4 °F 77% 30.00 in 10.0 mi East 5.8 mph - N/A   Clear
9:13 PM 53.6 °F - 46.4 °F 77% 30.01 in 10.0 mi East 5.8 mph - N/A   Clear
9:34 PM 53.6 °F - 46.4 °F 77% 30.03 in 10.0 mi ENE 5.8 mph - N/A   Clear
9:54 PM 51.8 °F - 46.4 °F 82% 30.04 in 10.0 mi ENE 3.5 mph - N/A   Clear
10:13 PM 51.8 °F - 46.4 °F 82% 30.05 in 10.0 mi ENE 3.5 mph - N/A   Clear
10:34 PM 48.2 °F - 44.6 °F 87% 30.06 in 10.0 mi Calm Calm - N/A   Clear
10:53 PM 48.2 °F - 46.4 °F 93% 30.06 in 10.0 mi Calm Calm - N/A   Clear
11:14 PM 48.2 °F - 46.4 °F 93% 30.07 in 10.0 mi Calm Calm - N/A   Clear
11:34 PM 48.2 °F - 44.6 °F 87% 30.07 in 10.0 mi Calm Calm - N/A   Clear
11:53 PM 48.2 °F - 44.6 °F 87% 30.07 in 10.0 mi Calm Calm - N/A   Clear